ASTROCAST-0201 (48954 NORAD) Tracking and Keplerian Element Data

This shows tracking and keplerian element data for the satellite.

Feedback or suggestion? Click here.




ElementValue
Catalog48954
NameASTROCAST-0201
Epoch Orbit514
Epoch Day210.79669235
Epoch Year2021
RAAN339.2228
Inclination97.5174
Eccentricity0.0016135
Argument of Perigee133.594
Mean Anonmoly226.6634
Mean Motion15.14311275
Decay Rate1.645E-05
L11 48954U 21059CD 21210.79669235 .00001645 00000-0 93198-4 0 9990
L22 48954 97.5174 339.2228 0016135 133.5940 226.6634 15.14311275 5144

Live tracking and technical data element details for ASTROCAST-0201 (NORAD 48954). ASTROCAST-0201 can be tracked NOW for your location showing map with azimuth and elevation plus other details from your city location.

Track the satellite on the map from your city or location and see movement details for azimuth, elevation, latitude, longitude, range, height, and movement on the map or in text.







IsCatalogInMostPopularTable: catalog: 48954, numindb: 2
Update: records affected: 1



GetName: 48954 ASTROCAST-0201

Hit Count: updated at: Sat, 31 Jul 2021 16:36:04 GMT